Theta_e
305 303 304 306 307 309 312 312 311 309 309 308 308 308 308 305 304 303 303 303 303 302 301 300 303 317 322 323 323 322 321 320 318 317 317 316 315 316 316 313 314 314 312 310
306 305 303 305 305 307 310 311 311 309 308 305 306 306 307 307 303 303 303 302 302 301 301 300 301 304 315 320 321 321 321 320 319 318 316 315 315 314 313 312 313 313 309 309
308 305 302 304 304 304 307 308 310 310 309 308 307 305 304 303 302 302 301 301 299 298 299 300 301 303 307 315 318 319 319 318 317 316 315 314 314 312 312 311 311 313 313 311
304 302 309 305 303 304 304 304 307 307 305 304 303 302 300 300 301 300 298 298 298 296 298 300 302 305 307 311 315 315 316 316 316 315 314 313 312 314 311 310 309 305 305 306
303 308 306 304 300 302 303 303 302 303 303 302 301 301 299 300 299 299 298 297 297 298 299 301 303 305 307 309 312 313 312 312 312 312 311 310 308 307 307 308 306 306 309 308
301 309 309 304 303 298 300 304 299 300 300 299 298 300 299 299 298 297 296 297 297 298 298 300 302 305 305 304 305 306 308 309 309 309 309 308 307 306 304 304 303 302 303 303
301 303 307 304 299 297 303 303 298 297 298 298 299 298 297 297 297 296 296 297 297 297 296 298 301 303 302 302 302 303 304 304 305 304 305 306 306 306 306 304 302 301 301 301
303 306 307 301 298 302 301 298 299 298 298 298 297 297 297 297 296 296 296 296 296 295 295 296 298 300 298 298 300 302 303 303 303 302 302 302 302 301 300 300 300 299 299 299
304 303 299 296 300 299 298 298 298 297 297 297 297 297 296 296 295 295 295 295 295 295 295 295 296 296 296 296 298 300 300 300 301 301 301 301 301 300 299 298 297 296 296 296
306 303 298 298 296 296 296 296 295 295 296 296 296 295 295 295 294 294 294 294 294 294 293 293 293 294 294 296 297 298 298 298 298 298 298 298 298 298 298 296 296 296 295 295
303 298 298 299 297 296 297 296 296 296 296 296 296 295 294 293 292 292 292 292 292 291 290 290 290 291 293 295 296 297 297 296 297 297 297 296 296 296 296 296 297 297 296 297
302 299 301 301 299 299 298 298 297 297 296 295 295 295 294 293 291 291 290 290 290 289 289 289 289 290 291 293 295 295 295 295 295 295 295 295 295 294 294 295 295 295 295 295
296 296 295 294 294 295 294 294 293 293 293 293 292 292 292 292 291 291 289 289 289 289 289 289 289 289 290 291 292 292 292 293 293 293 293 293 293 293 293 293 293 293 294 293
290 293 292 293 293 293 293 292 292 291 291 291 291 291 291 290 290 289 289 288 288 289 288 288 288 288 289 290 290 290 290 290 291 291 291 290 290 291 291 291 292 292 292 292
286 287 287 287 288 289 290 290 290 290 290 290 289 289 289 289 289 289 288 288 288 288 287 287 288 288 288 289 289 290 290 289 289 290 292 292 291 290 290 289 289 290 291 291
284 284 284 284 284 285 285 286 287 287 287 286 286 286 286 286 286 286 286 286 286 286 285 286 285 286 286 286 287 288 288 289 289 289 288 288 289 289 289 289 289 290 290 290
283 282 283 283 283 283 283 283 283 283 283 283 282 282 283 283 283 283 284 283 283 282 282 283 283 285 286 286 285 285 286 286 288 288 287 287 288 288 288 288 288 288 289 289
282 282 282 282 282 282 282 282 282 281 281 281 281 281 281 281 281 282 282 283 283 282 282 282 282 283 284 286 285 285 284 284 285 285 286 286 287 287 287 287 288 288 288 288
281 281 281 281 280 280 280 280 281 280 280 280 280 280 280 280 280 280 281 280 280 281 281 281 281 282 282 284 284 284 284 284 284 284 284 285 284 285 285 286 286 287 287 287
280 280 280 280 279 279 279 279 279 279 279 280 279 279 279 279 279 279 279 280 279 280 280 281 280 281 282 283 283 283 282 283 283 283 283 283 283 283 283 284 284 284 285 286
279 279 279 279 279 279 278 278 279 279 279 279 278 278 278 278 278 278 278 278 278 279 279 280 279 280 281 282 282 281 280 280 280 280 281 281 282 282 282 282 283 284 284 284
278 278 279 278 278 278 278 278 278 278 278 278 278 278 278 278 278 278 278 277 278 278 279 278 278 280 280 281 280 279 278 278 278 279 279 279 280 280 280 281 281 282 283 284
278 278 278 278 277 277 278 278 278 278 278 277 278 278 277 277 277 277 277 277 277 277 278 277 278 279 279 279 278 277 276 276 276 277 277 278 278 279 279 279 279 280 281 281
277 277 277 278 278 278 277 278 278 278 278 278 278 277 277 277 277 277 277 276 276 277 277 276 277 278 278 276 276 275 275 276 276 276 277 278 278 278 278 278 278 278 279 280
275 276 277 276 276 277 277 277 277 278 277 277 276 276 277 277 277 277 276 276 276 276 275 275 276 276 275 275 275 275 275 275 275 276 277 276 276 277 277 277 278 278 278 278
275 275 275 276 276 276 276 276 276 277 277 276 276 276 276 277 277 276 276 275 275 275 274 274 274 274 274 274 274 274 274 274 274 275 275 275 275 275 276 276 276 277 277 276
274 275 276 274 275 275 276 277 277 276 276 276 275 276 276 276 276 276 275 274 274 273 273 273 273 273 273 273 273 273 273 273 273 273 274 274 274 274 274 275 275 275 275 275
Wind_Speed
15 10 5 6 6 13 18 23 10 9 15 21 17 14 16 6 8 9 9 9 9 8 4 4 7 13 16 20 20 26 26 28 32 33 35 34 34 36 38 39 42 36 35 37
25 21 14 19 12 14 21 21 20 12 15 13 5 6 13 12 9 10 9 9 9 8 8 5 7 9 12 15 18 20 25 26 25 27 30 32 31 32 38 38 36 37 33 35
19 10 7 8 26 11 6 6 16 16 13 17 8 9 8 11 10 10 10 8 8 8 7 2 3 4 8 10 11 19 23 21 23 25 28 30 31 32 28 32 36 37 39 37
13 5 20 13 10 20 20 20 18 18 5 9 12 5 7 8 8 9 8 5 4 5 6 6 4 0 2 6 9 11 16 19 22 22 23 25 27 28 28 24 27 30 27 33
10 11 8 7 4 9 7 10 14 14 13 15 1 1 8 1 2 3 4 3 2 4 4 6 6 4 4 6 8 8 7 9 13 17 18 20 21 22 28 28 25 30 33 33
11 9 9 7 17 6 6 12 9 11 12 7 6 2 3 3 4 6 6 5 5 10 9 9 8 7 9 7 6 3 5 7 7 10 12 14 15 16 17 19 23 25 30 33
17 17 6 6 5 8 7 7 7 8 7 8 6 4 3 6 7 5 7 9 11 18 16 13 8 9 13 11 9 6 6 6 6 7 7 9 11 13 14 16 17 21 22 23
14 14 21 6 2 9 7 3 5 5 5 6 8 7 7 7 6 7 8 12 11 15 18 19 17 16 15 14 7 6 6 6 7 7 7 8 10 11 13 17 18 17 18 19
7 10 2 1 3 3 4 6 5 6 6 11 11 8 7 8 9 7 8 13 15 13 18 22 24 22 20 16 10 5 6 6 5 4 4 4 6 7 9 11 13 14 17 18
3 3 4 3 6 5 5 6 7 7 9 10 12 8 8 7 9 9 12 14 14 17 16 18 23 25 22 18 15 10 6 6 6 5 4 2 4 6 8 12 14 16 17 17
3 2 7 13 10 10 14 14 15 14 13 13 14 11 11 7 12 11 13 17 18 17 17 20 23 27 27 25 20 16 11 8 5 4 4 4 3 4 7 9 13 16 17 18
3 11 6 8 11 14 19 15 13 16 16 14 13 11 11 11 14 15 16 18 19 20 21 21 23 27 27 25 22 17 15 12 9 7 5 4 2 2 0 2 5 7 8 11
2 11 16 16 15 17 18 15 16 17 13 14 12 11 14 13 15 19 19 20 19 18 20 23 25 28 26 22 19 19 17 15 14 13 10 8 6 4 2 4 2 1 4 4
21 13 25 21 11 16 19 18 24 23 22 19 16 21 22 17 21 21 20 20 20 21 22 22 23 25 26 24 24 23 21 18 20 19 17 15 12 9 5 3 3 3 4 4
24 23 21 21 22 21 18 18 20 17 15 16 25 23 22 17 17 19 20 20 22 23 23 23 23 24 24 23 25 25 23 23 20 17 14 11 10 10 10 9 7 5 8 2
21 23 24 25 22 21 20 20 20 17 16 13 17 19 19 19 19 19 20 20 20 18 19 19 21 21 21 23 22 21 21 20 20 19 17 15 14 11 9 7 4 2 2 3
22 23 19 19 17 17 18 14 14 13 14 15 16 17 19 17 20 18 18 20 22 23 23 24 23 23 23 23 21 18 18 19 17 16 16 15 14 13 10 9 7 5 4 4
15 15 15 14 13 13 15 16 18 18 15 15 17 20 20 19 13 14 17 18 19 23 26 23 22 21 21 21 19 18 17 13 12 13 12 13 12 11 9 8 8 8 8 8
21 16 19 21 18 16 15 16 17 17 19 18 19 17 16 18 18 16 15 20 19 17 22 20 20 19 19 17 17 17 16 15 14 14 13 9 8 8 8 10 9 8 8 7
19 20 20 18 20 20 17 18 18 18 20 18 16 16 15 16 18 17 15 11 16 15 16 17 18 17 17 16 13 15 15 15 15 15 14 13 13 12 12 11 10 12 12 10
15 17 18 18 16 19 20 21 19 17 18 18 16 14 13 15 17 16 15 10 17 18 16 17 17 16 16 13 12 14 15 15 14 14 14 14 14 14 14 13 13 12 13 13
13 13 13 13 12 13 15 16 16 16 18 17 16 16 17 16 17 17 13 12 19 18 17 19 18 16 16 12 14 16 16 14 13 12 13 13 14 15 16 16 16 15 14 12
16 16 16 16 16 15 15 15 15 14 15 14 13 14 14 14 13 12 11 19 18 17 18 18 17 16 17 14 18 17 17 17 17 16 15 14 14 13 13 14 15 16 15 15
16 16 17 18 17 17 13 18 16 15 14 15 13 15 15 17 16 13 15 17 17 18 16 17 17 18 17 17 17 18 18 16 15 15 15 13 13 14 16 15 15 15 14 14
19 20 18 19 15 13 17 17 16 14 14 13 17 17 16 15 13 18 18 19 19 19 20 21 19 18 17 18 19 17 16 17 16 16 15 17 16 15 15 15 14 13 14 15
19 16 17 17 17 17 15 15 12 14 12 13 17 20 21 18 15 16 15 16 19 18 21 20 18 17 19 19 18 20 19 19 18 17 14 14 13 14 15 15 15 15 15 16
15 17 15 16 17 19 19 18 18 15 14 16 17 18 17 17 17 14 15 18 20 20 19 18 18 18 17 21 20 22 22 20 15 16 18 21 22 22 22 21 21 22 22 22
Wind_Direction
256 253 223 245 188 190 209 226 213 219 221 254 246 269 282 281 292 292 284 276 272 278 265 219 250 234 242 239 224 214 204 204 207 209 212 215 215 220 227 221 224 220 217 218
264 262 240 252 241 199 211 224 236 261 258 255 226 275 283 283 284 282 278 275 277 269 268 209 225 243 235 236 233 212 212 214 212 206 211 211 213 209 211 218 222 218 214 219
260 251 210 237 233 196 192 193 205 230 230 261 267 242 258 264 254 261 271 278 287 280 275 312 230 208 235 229 232 224 217 215 213 207 201 201 199 209 215 218 217 219 215 216
285 169 235 247 178 213 217 225 214 238 215 228 246 264 242 238 249 270 275 267 315 338 336 356 12 26 188 199 206 222 217 210 209 203 205 211 211 214 219 220 218 204 203 209
249 251 267 286 197 148 163 238 215 217 236 245 291 349 292 296 26 359 356 44 355 15 354 10 49 71 117 142 178 194 218 207 201 203 199 201 200 196 204 204 206 206 213 213
234 253 235 238 215 183 117 244 202 184 213 210 131 178 257 49 71 53 37 28 34 55 50 47 44 83 103 101 116 144 193 207 210 211 215 213 215 208 205 196 196 197 199 207
221 240 271 245 278 127 171 224 171 169 172 165 171 182 140 108 82 81 67 47 66 67 54 41 55 81 80 82 68 87 129 153 170 180 193 204 207 214 214 208 206 201 203 206
212 230 237 202 90 183 213 63 123 129 163 123 115 101 92 78 67 72 65 47 44 69 53 46 54 73 69 52 46 78 109 128 137 149 158 168 182 184 192 193 189 194 198 201
209 222 138 121 154 304 144 142 157 133 115 120 111 100 94 86 68 35 60 57 42 44 62 49 50 52 48 29 37 67 102 114 122 138 150 169 185 187 186 196 196 188 190 193
232 24 49 29 57 38 52 95 96 104 104 103 101 88 82 76 76 54 43 42 41 50 44 46 42 45 42 34 32 39 61 90 104 104 109 150 192 202 202 198 200 202 200 201
92 46 90 46 50 83 72 71 76 71 81 90 92 83 83 65 66 59 48 50 49 51 47 40 38 39 38 37 36 37 37 49 72 90 109 138 168 204 219 224 225 219 218 218
348 322 77 84 63 68 74 68 65 79 68 56 74 82 81 67 59 52 46 43 49 48 45 37 37 38 38 39 40 41 44 40 51 65 72 69 93 107 190 264 255 250 251 242
321 54 82 79 64 68 74 72 71 72 68 70 60 75 76 72 70 68 59 54 49 50 50 44 41 41 43 44 50 51 50 49 56 57 56 56 55 56 42 43 44 246 255 256
24 62 60 56 64 68 75 75 75 73 68 67 70 66 71 70 64 59 55 55 57 57 53 49 45 38 45 51 58 57 58 59 62 59 55 52 47 43 40 43 59 101 136 153
31 43 57 57 52 53 60 65 65 61 61 59 56 58 57 58 57 55 55 58 58 55 50 47 44 36 41 50 55 54 45 51 59 62 57 55 57 58 56 55 60 96 121 147
33 39 44 48 46 44 47 47 56 51 52 53 56 57 63 67 63 59 57 55 56 46 42 41 40 39 41 47 45 42 44 44 53 58 54 48 45 47 49 50 57 115 198 198
34 31 32 43 44 43 47 49 52 52 52 50 50 55 56 60 60 51 55 62 61 53 45 39 34 38 41 37 39 41 46 46 40 39 39 37 37 34 28 23 13 351 316 275
37 41 40 41 42 46 43 42 44 44 41 44 49 51 48 45 39 40 41 45 47 42 34 30 24 27 32 34 31 31 32 28 29 29 30 32 34 26 23 10 353 342 332 324
24 31 36 39 33 43 44 38 39 41 38 40 45 44 46 42 38 37 34 39 32 24 13 14 13 17 20 22 14 17 19 18 16 13 13 8 5 2 355 352 350 347 341 328
18 24 29 32 34 37 33 29 34 35 34 36 38 35 34 31 29 26 27 37 26 11 358 3 2 8 9 9 3 2 1 360 356 353 355 351 352 347 341 335 326 317 315 311
11 14 18 18 18 27 28 27 27 25 24 31 32 26 21 18 18 15 14 7 2 1 353 353 355 357 359 352 350 355 351 346 343 340 336 336 334 334 333 331 329 323 316 309
360 4 5 8 13 16 18 20 22 18 15 14 14 11 6 4 2 359 3 354 346 346 343 341 344 344 340 340 338 339 336 334 331 329 327 326 324 322 321 322 322 321 318 313
351 352 353 356 354 347 354 7 8 7 6 4 359 355 350 342 344 342 338 341 334 336 331 331 336 333 330 326 327 330 330 327 324 321 320 318 314 313 312 315 316 315 312 310
343 342 342 346 342 341 343 345 347 348 347 348 348 344 341 336 331 339 334 328 331 331 329 329 328 326 324 322 328 328 327 326 325 322 317 313 312 313 311 311 311 310 301 293
343 344 348 348 345 337 330 332 329 329 335 337 340 340 334 330 310 320 327 329 330 330 329 325 326 326 325 327 326 327 325 322 320 317 311 309 311 312 308 308 307 309 309 307
341 337 340 348 342 338 330 324 305 306 323 327 328 329 328 326 318 317 321 327 325 325 324 328 331 328 321 325 325 321 320 317 311 309 306 306 305 304 304 304 302 299 299 300
339 344 345 344 345 341 335 335 337 319 320 326 311 314 318 318 318 311 313 324 329 326 324 325 328 330 321 317 313 312 311 308 302 299 297 295 296 296 296 295 293 292 292 292